Regional Weather Roundup
Issued by NWS

Home | Current Version | Previous Version | Text Only | Print | Product List | Glossary On
Versions: 1 2 3 4 5 6 7 8 9 10 11 12 13 14 15 16 17 18 19 20 21 22 23 24 25 26 27 28 29 30 31 32 33 34 35 36 37 38 39 40 41 42 43 44 45 46 47 48 49 50
000
ASUS43 KMKX 252300
RWRWI

WISCONSIN REGIONAL WEATHER ROUNDUP
NATIONAL WEATHER SERVICE MILWAUKEE/SULLIVAN WI
600 PM CDT MON SEP 25 2017

NOTE: "FAIR" INDICATES FEW OR NO CLOUDS BELOW 12,000 FEET WITH NO
SIGNIFICANT WEATHER AND/OR OBSTRUCTIONS TO VISIBILITY.

WIZ001-002-006>008-014>016-023>028-260000-
NORTHWEST WISCONSIN

CITY           SKY/WX    TMP DP  RH WIND       PRES   REMARKS
SUPERIOR ARPT  CLOUDY    60  55  85 CALM      30.00R
ASHLAND        RAIN      58  57  97 CALM      30.00R FOG
HAYWARD        RAIN      59  57  93 NW5       30.00R
SIREN          CLOUDY    58  55  89 N7        30.00S
CUMBERLAND     CLOUDY    59  55  88 N9        29.98S
RICE LAKE      CLOUDY    62  59  90 NW10      29.98R
CHETEK         CLOUDY    64  63  96 N9G18     29.95S
LADYSMITH      CLOUDY    69  66  92 NW12      29.95R
EAU CLAIRE     NOT AVBL
MENOMONIE      CLOUDY    68  64  84 NW8       29.94R
NEW RICHMOND   CLOUDY    60  58  93 N14G20    29.98S
OSCEOLA        CLOUDY    60  60 100 N6        30.01S
$$

WIZ003>005-009-010-017-018-260000-
NORTH CENTRAL WISCONSIN

CITY           SKY/WX    TMP DP  RH WIND       PRES   REMARKS
MANITOWISH WTR CLOUDY    66  66 100 N7        29.93F
ARBOR VITAE    CLOUDY    67  64  90 CALM      29.92F
WOODRUFF       CLOUDY    67  64  90 CALM      29.92F
RHINELANDER    CLOUDY    76  65  68 N6        29.92F
EAGLE RIVER    MOCLDY    73  59  63 CALM      29.92F
LAND O LAKES   TSTM      69  64  82 W12       29.99R
PHILLIPS       TSTM      66  66 100 NW6       29.93R
TOMAHAWK       PTCLDY    78  66  66 CALM      29.92F
MEDFORD        CLOUDY    79  65  63 S12G18    29.91S HX  81
MERRILL        CLOUDY    81  66  60 CALM      29.92S HX  83
$$

WIZ029-030-035-036-043>047-260000-
CENTRAL WISCONSIN

CITY           SKY/WX    TMP DP  RH WIND       PRES   REMARKS
WAUSAU         MOCLDY    80  63  55 CALM      29.89F HX  81
MOSINEE        PTCLDY    79  66  65 VRB5      29.92S HX  81
MARSHFIELD     CLOUDY    72  64  76 SW6       29.92S
STEVENS POINT  MOCLDY    80  63  56 W14G22    29.92R HX  81
WAUPACA        CLEAR     83  64  50 CALM      29.90S HX  85
WAUTOMA        CLOUDY    80  65  59 W17       29.91R HX  82
WISC RAPIDS    CLOUDY    75  61  61 W6        29.93R
CAMP DOUGLAS   LGT RAIN  72  63  73 SW6       29.91F
$$

WIZ011>013-019>022-031-037>040-048>050-260000-
NORTHEAST WISCONSIN

CITY           SKY/WX    TMP DP  RH WIND       PRES   REMARKS
ANTIGO         MOCLDY    77  65  67 SE6       29.94S
SHAWANO        CLEAR     85  63  46 S3        29.90R HX  86
OCONTO         CLEAR     81  65  57 SE6       29.90R HX  83
STURGEON BAY   CLEAR     76  63  64 S13       29.93F
GREEN BAY      CLEAR     82  64  54 SE12      29.91R HX  83
MANITOWOC      CLEAR     75  65  70 S13       29.94S
APPLETON       PTCLDY    84  55  37 S7        29.90S HX  83
CLINTONVILLE   CLEAR     82  63  51 S5        29.90S HX  83
OSHKOSH        CLEAR     82  66  58 SE9       29.90S HX  84
$$

WIZ032>034-041-042-053>061-260000-
SOUTHWEST WISCONSIN

CITY           SKY/WX    TMP DP  RH WIND       PRES   REMARKS
LA CROSSE      CLOUDY    73  67  81 SE5       29.91R
SPARTA         CLOUDY    66  65  96 SW3       29.92R
VIROQUA        CLOUDY    67  66  98 SW3       29.95S
BOSCOBEL       TSTM      69  65  86 NE5       29.93F
PRAIRIE DU CHI CLOUDY    70  64  81 CALM      29.91F
PLATTEVILLE    PTCLDY    75  65  70 N9G17     29.92S
$$

WIZ056-057-062-063-064-067-068-260000-
SOUTH CENTRAL WISCONSIN

CITY           SKY/WX    TMP DP  RH WIND       PRES   REMARKS
REEDSBURG      LGT RAIN  69  69 100 N9        29.91R
BARABOO/DELLS  CLOUDY    77  62  59 W9        29.92R
LONE ROCK      NOT AVBL
MINERAL POINT  MOCLDY    73  61  64 NW16G28   29.94R
MADISON        PTCLDY    87  59  38 VRB5      29.90R HX  86
MIDDLETON      CLEAR     89  55  31 S7        29.90S HX  87
WATERTOWN      CLEAR     87  60  41 SE5       29.90S HX  86
MONROE         CLEAR     88  54  31 S7        29.92R HX  86
JANESVILLE     PTCLDY    90  54  29 S7        29.90S HX  87
$$

WIZ051-052-058>065-066-070>072-260000-
SOUTHEAST WISCONSIN

CITY           SKY/WX    TMP DP  RH WIND       PRES   REMARKS
MILWAUKEE      PTCLDY    82  61  48 SE9       29.93S HX  83
WAUKESHA       PTCLDY    82  54  36 SE9       29.95R HX  81
MILWAUKEE/TIMM PTCLDY    84  48  28 S10G16    29.94R HX  82
RACINE         CLEAR     81  63  54 SE12      29.95S HX  82
BURLINGTON     CLEAR     84  57  40 SE9       29.93R HX  83
KENOSHA        CLEAR     82  59  45 SE9       29.94S HX  82
FOND DU LAC    CLEAR     83  60  45 SE12      29.91S HX  83
SHEBOYGAN      CLEAR     77  66  68 S9        29.94S
WEST BEND        N/A     81  55  41 SE9       29.94S HX  80
JUNEAU         CLEAR     85  61  44 SE5       29.92F HX  85
$$

LSZ147-162-260000-
LAKE SUPERIOR

STATION/POSITION TIME  TEMP    WIND        PRES    WAVE
                       AIR SEA DIR/SP/G            HT/PER
                 (UTC) (F)     (DEG/KT/KT) (MB)    (FT/S)
W MID LAKE BUOY  2150   59 57  360/  8/  8 1014.4F   0
DEVILS ISLAND    2200   60     320/  9/  9 1015.1F
SAXON HARBOR     2240   60     360/ 11/ 13 1014.9R
$$

LMZ867-665-643>646-260000-
LAKE MICHIGAN

STATION/POSITION TIME  TEMP    WIND        PRES    WAVE
                       AIR SEA DIR/SP/G            HT/PER
                 (UTC) (F)     (DEG/KT/KT) (MB)    (FT/S)
S GREEN BAY BUOY 2200   77 72  130/  8/ 10 1012.7
N MID LAKE BUOY  2150   70 68  180/  6/  8 1014.1F   1/ 4
NORTHPORT PIER   2240   76     170/  7/ 11 1012.9F
KEWAUNEE LAKESHO 2230   68     180/  9/ 10 1012.9F
SHEBOYGAN LAKESH 2200   71     180/  7/  8 1013.4S
PORT WASHINGTON  2230   75     180/  2/  3 1014.6S
ATWATER BUOY     2109   68 62  180/  6/  8 1013.8F
MILWAUKEE LAKESH 2250   70     160/ 11/ 12   N/A
S MID LAKE BUOY  2150   74 71  130/  6/  6 1013.8F   1
KENOSHA   LAKESH 2200   76     160/  9/ 12 1013.2
$$

TC  - TEMPERATURE IN CELSIUS
VSB - VISIBILITY IN STATUTE MILES
WCI - WIND CHILL INDEX
HX  - HEAT INDEX





USA.gov is the U.S. government's official web portal to all federal, state and local government web resources and services.